TimeMST,TemperatureF,Dew PointF,Humidity,Sea Level PressureIn,VisibilityMPH,Wind Direction,Wind SpeedMPH,Gust SpeedMPH,PrecipitationIn,Events,Conditions,WindDirDegrees,DateUTC
12:53 AM,23.0,8.1,53,29.88,10.0,West,6.9,-,N/A,,Clear,260,2013-02-26 07:53:00
1:53 AM,24.1,7.0,48,29.86,10.0,Calm,Calm,-,N/A,,Clear,0,2013-02-26 08:53:00
2:53 AM,17.1,8.1,68,29.86,10.0,WSW,3.5,-,N/A,,Clear,240,2013-02-26 09:53:00
3:53 AM,19.9,7.0,57,29.84,10.0,WSW,5.8,-,N/A,,Clear,250,2013-02-26 10:53:00
4:53 AM,19.9,8.1,60,29.83,10.0,Calm,Calm,-,N/A,,Clear,0,2013-02-26 11:53:00
5:53 AM,12.9,8.1,81,29.88,10.0,Calm,Calm,-,N/A,,Clear,0,2013-02-26 12:53:00
6:53 AM,14.0,6.1,71,29.88,10.0,Calm,Calm,-,N/A,,Clear,0,2013-02-26 13:53:00
7:53 AM,26.1,10.0,51,29.87,10.0,Calm,Calm,-,N/A,,Clear,0,2013-02-26 14:53:00
8:53 AM,30.9,10.9,43,29.86,10.0,Variable,4.6,-,N/A,,Clear,0,2013-02-26 15:53:00
9:53 AM,36.0,10.0,34,29.80,10.0,WSW,15.0,23.0,N/A,,Clear,240,2013-02-26 16:53:00
10:53 AM,41.0,7.0,25,29.77,10.0,WSW,20.7,27.6,N/A,,Clear,250,2013-02-26 17:53:00
11:53 AM,42.1,3.0,20,29.75,10.0,West,26.5,36.8,N/A,,Clear,260,2013-02-26 18:53:00
12:53 PM,37.9,-2.0,18,29.77,10.0,WNW,26.5,38.0,N/A,,Partly Cloudy,290,2013-02-26 19:53:00
1:53 PM,39.9,-6.0,14,29.76,10.0,WNW,25.3,35.7,N/A,,Partly Cloudy,290,2013-02-26 20:53:00
2:53 PM,39.0,-5.1,15,29.82,10.0,WNW,27.6,35.7,N/A,,Clear,300,2013-02-26 21:53:00
3:53 PM,37.9,-7.1,15,29.83,10.0,West,26.5,36.8,N/A,,Partly Cloudy,280,2013-02-26 22:53:00
4:53 PM,35.1,-9.0,15,29.86,10.0,WNW,25.3,36.8,N/A,,Clear,300,2013-02-26 23:53:00
5:53 PM,30.9,-7.1,19,29.95,10.0,WNW,18.4,38.0,N/A,,Clear,290,2013-02-27 00:53:00
6:53 PM,26.1,-4.0,27,30.01,10.0,WNW,6.9,-,N/A,,Clear,300,2013-02-27 01:53:00
7:53 PM,26.1,-0.9,31,29.98,10.0,NNW,8.1,-,N/A,,Clear,330,2013-02-27 02:53:00
8:53 PM,21.9,-0.9,37,29.99,10.0,NNW,4.6,-,N/A,,Clear,330,2013-02-27 03:53:00
9:53 PM,23.0,-0.0,37,30.00,10.0,West,3.5,-,N/A,,Clear,270,2013-02-27 04:53:00
10:53 PM,19.9,1.9,46,30.01,10.0,North,6.9,-,N/A,,Clear,350,2013-02-27 05:53:00
11:53 PM,18.0,5.0,57,30.04,10.0,NNW,5.8,-,N/A,,Clear,330,2013-02-27 06:53:00